Regional Weather Roundup
Issued by NWS

Home | Current Version | Previous Version | Text Only | Print | Product List | Glossary On
Versions: 1 2 3 4 5 6 7 8 9 10 11 12 13 14 15 16 17 18 19 20 21 22 23 24 25 26 27 28 29 30 31 32 33 34 35 36 37 38 39 40 41 42 43 44 45 46 47 48 49 50
000
ASUS43 KDTX 171510
RWRMI
MICHIGAN HOURLY REGIONAL WEATHER ROUNDUP
NATIONAL WEATHER SERVICE DETROIT/PONTIAC MI
1100 AM EDT SAT AUG 17 2019

NOTE: "FAIR" INDICATES FEW OR NO CLOUDS BELOW 12,000 FEET WITH NO
SIGNIFICANT WEATHER AND/OR OBSTRUCTION TO VISIBILITY.

MIZ047>049-052>055-059>063-066>070-074>076-081>083-171600-
SOUTHEAST LOWER MICHIGAN

CITY           SKY/WX    TMP DP  RH WIND       PRES   REMARKS
ADRIAN         FAIR      77  67  71 NW6       29.97R
ALMA           FAIR      76  63  63 W12       29.93R
ANN ARBOR      FAIR      77  67  71 W8        29.95S
BAD AXE        PTSUNNY   72  64  77 W9        29.89F
CARO           PTSUNNY   75  65  70 W6        29.91S
DETROIT CITY   FAIR      78  65  63 W9        29.93F
DETROIT        PTSUNNY   77  68  73 NW8       29.95R
FLINT          FAIR      78  62  57 W7        29.93S
GROSSE ILE     FAIR      76  70  80 W6        29.93S
HILLSDALE      PTSUNNY   74  66  77 NW7       29.98R
HOWELL         FAIR      76  64  67 SW8       29.95R

CITY           SKY/WX    TMP DP  RH WIND       PRES   REMARKS
JACKSON        FAIR      74  65  73 SW5       29.97R
LAMBERTVILLE   PTSUNNY   79  70  74 W3        29.95S
LANSING        FAIR      77  60  55 W10       29.95R
LAPEER         FAIR      77  61  57 W9        29.93S
MASON          FAIR      76  65  67 W8        29.96R
MT. CLEMENS    MOSUNNY   78  68  70 SW7       29.91F
PONTIAC        PTSUNNY   75  62  64 W12       29.93S
PORT HOPE        N/A     75  65  70 W10       29.87S
TRI CITIES     FAIR      76  63  64 SW10      29.91F
MIDLAND        FAIR      78  64  61 W9        29.90S
TROY           FAIR      78  66  66 SW5       29.95S
SAGINAW HB     FAIR      77  63  61 SW12      29.91S
$$
MIZ043>046-050>051-056>058-064>065-071>073-077>080-171600-
SOUTHWEST LOWER MICHIGAN

CITY           SKY/WX    TMP DP  RH WIND       PRES   REMARKS
BATTLE CREEK   FAIR      75  65  70 W7        29.97R
BENTON HARBOR  FAIR      76  67  73 W6        29.94S
BIG RAPIDS     FAIR      74  64  70 W9        29.92R
COLDWATER      FAIR      75  66  73 CALM      29.97S
FREMONT        FAIR      77  61  59 W8        29.93R
HOLLAND        FAIR      77  65  66 W10       29.96R
GRAND RAPIDS   PTSUNNY   77  62  59 SW14G20   29.95R
IONIA          FAIR      76  60  56 SW12G18   29.94R
KALAMAZOO      FAIR      75  67  76 SW6       29.97R
LUDINGTON      FAIR      73  66  78 W6        29.90F
MARSHALL       FAIR      76  66  69 W3        29.97R
MOUNT PLEASANT FAIR      76  66  70 SW10      29.91R
MUSKEGON       PTSUNNY   77  66  68 SW8       29.94R
SOUTH HAVEN    FAIR      77  69  76 NW3       29.95S
$$
MIZ016>042-171600-
NORTHERN LOWER MICHIGAN

CITY           SKY/WX    TMP DP  RH WIND       PRES   REMARKS
ALPENA         PTSUNNY   73  62  68 SW13G18   29.85F
BEAVER ISLAND  CLOUDY    66  61  84 W9        29.91R
BELLAIRE       CLOUDY    73  64  73 W6        29.90R
CADILLAC       FAIR      73  64  74 W6        29.91F
CHARLEVOIX     CLOUDY    72  63  73 W10       29.93R
FRANKFORT      CLOUDY    74  65  74 W5        29.90S
GAYLORD        PTSUNNY   67  61  81 W9G22     29.90R
GRAYLING       FAIR      70  62  73 W13G18    29.90R
HARBOR SPRINGS PTSUNNY   72  65  78 W9G16     29.88R
HOUGHTON LAKE  PTSUNNY   69  62  78 W10       29.92R
MANISTEE       FAIR      72  67  84 VRB7      29.90S
OSCODA         FAIR      75  64  70 W9        29.86F
PELLSTON       PTSUNNY   70  64  81 W8        29.87S
ROGERS CITY    CLOUDY    70  65  84 W6        29.84F
TRAVERSE CITY  MOSUNNY   75  64  68 NW10      29.89R
$$
MIZ007>008-015-171600-
EASTERN UPPER MICHIGAN

CITY           SKY/WX    TMP DP  RH WIND       PRES   REMARKS
KINROSS        CLOUDY    65  64  97 W3        29.86R
MACKINAC ISLAN CLOUDY    67  67 100 W8        29.86S
NEWBERRY       PTSUNNY   67  64  91 W7        29.89R
S. S. MARIE    CLOUDY    66  64  93 CALM      29.86R FOG
MUNISING         N/A     68  62  81 SW8       29.89R
$$
MIZ004>006-011>014-085-171600-
CENTRAL UPPER MICHIGAN

CITY           SKY/WX    TMP DP  RH WIND       PRES   REMARKS
MANISTIQUE     CLOUDY    65  63  93 W3        29.91R
ESCANABA       CLOUDY    64  62  93 N5        29.90F
MENOMINEE      FAIR      70  65  84 CALM      29.89F
SAWYER-GWINN   SUNNY     66  61  82 S5        29.91R
$$
MIZ001>003-009>011-084-171600-
WESTERN UPPER MICHIGAN

CITY           SKY/WX    TMP DP  RH WIND       PRES   REMARKS
IRON MOUNTAIN  FAIR      71  63  75 N3        29.88F
HOUGHTON       FAIR      73  63  70 SW6       29.87S
COPPER HARBOR    N/A     69  64  84 SW8       29.85R
IRONWOOD       FAIR      73  60  63 SW7       29.88F
$$

ABBREVIATIONS USED IN REMARKS
   TC - TEMPERATURE IN CELSIUS
  WCI - WIND CHILL INDEX
   HX - HEAT INDEX
  VSB - VISIBILITY




USA.gov is the U.S. government's official web portal to all federal, state and local government web resources and services.